Tracking 30107 objects as of 25-Jan-2025
HD Live streaming from Space Station
objects crossing your sky now

METEOR 2-17 DEB

Track METEOR 2-17 DEB now!
10-day predictions


NORAD ID: 29300
Int'l Code: 1988-005P
Perigee: 865.4 km
Apogee: 920.0 km
Inclination: 82.5 °
Period: 102.7 minutes
Semi major axis: 7263 km
RCS: 0.0063 m2 (small)
Launch date: January 30, 1988
Source: Commonwealth of Independent States (former USSR) (CIS)
Launch site: PLESETSK MISSILE AND SPACE COMPLEX (PKMTR)

Note: This is SATELLITE DEBRIS
Your satellite tracking list
Your tracking list is empty




NASA's NSSDC Master Catalog

Two Line Element Set (TLE):
1 29300U 88005P   25025.50984502  .00006994  00000-0  45180-2 0  9990
2 29300  82.5396 317.0691 0037628   8.6049 351.5758 14.02377231947834
Source of the keplerian elements: AFSPC